Voltar ao catálogo

STARLINK-34833

AtivoComunicaçõesVLEO
NORAD 65218·PAYLOAD·🇺🇸 United States

Lançado Aug 14, 2025 de Cape Canaveral Space Force Station

Loading…

Próximas Passagens (próximas 24 horas)

TLE

AtualizadoSource: CelesTrak SupGP

Época: Sep 14, 2026, 21:08 UTC

1 65218C 25176W   26257.88104167 -.00006627  00000+0 -19588-3 0  2573
2 65218  53.1594 350.1202 0001132  83.3360 166.1704 15.34378768    12

Acompanhe STARLINK-34833 em tempo real com AllMySat

Download on the App Store